Regional Weather Roundup
Issued by NWS New Orleans/Baton Rouge, LA

Current Version | Previous Version | Text Only | Print | Product List | Glossary On
Versions: 1 2 3 4 5 6 7 8 9 10 11 12 13 14 15 16 17 18 19 20 21 22 23 24 25 26 27 28 29 30 31 32 33 34 35 36 37 38 39 40 41 42 43 44 45 46 47 48 49 50
000
ASUS44 KLIX 292311
RWRLIX
NEW ORLEANS REGIONAL WEATHER ROUNDUP
NATIONAL WEATHER SERVICE NEW ORLEANS LA
600 PM CDT FRI APR 29 2016

NOTE: "FAIR" INDICATES FEW OR NO CLOUDS BELOW 12,000 FEET WITH NO
      SIGNIFICANT WEATHER AND/OR OBSTRUCTIONS TO VISIBILITY.
      SKY/WX - SKY CONDITION AND SIGNIFICANT WEATHER.
      TMP - AIR TEMPERATURE.     DP    - DEWPOINT TEMPERATURE.
      RH  - RELATIVE HUMIDITY.   PRES  - PRESSURE.
      HI  - HEAT INDEX.          WCI   - WIND CHILL INDEX.

*  THESE STATIONS ARE NOT NWS OR FAA STATIONS AND ARE NOT UNDER
   NWS QUALITY CONTROL.

LAZ038-040-048-061>063-065>067-069-300000-
SOUTHEAST LOUISIANA

CITY           SKY/WX    TMP DP  RH WIND       PRES   REMARKS
N.O. AUDUBON     N/A     81  73  75 MISG        N/A
N.O. INTL ARPT PTSUNNY   83  71  67 S13       29.84S
N.O. LAKEFRONT SUNNY     78  70  76 S15       29.85S
N.O. DOWNTOWN*   N/A     83  71  67 S9G20     29.86S
RESERVE*         N/A     83  70  62 S16       29.84R
SLIDELL        CLOUDY    81  71  71 SE9       29.86S
BATON ROUGE    CLOUDY    84  66  54 SE16      29.81R
BOOTHVILLE     PTSUNNY   79  73  82 SE8       29.86S
BELLE CHASSE   PTSUNNY   81  71  71 SE10      29.85S
BOGALUSA*        N/A     83  68  58 S12       29.87F
GALLIANO*      CLOUDY    81  73  75 SE8       29.84S
NEW ROADS*       N/A     82  69  64 S13G18    29.80S
GONZALES*        N/A     82  69  66 SE12      29.81S
HAMMOND*       CLOUDY    81  68  65 S13       29.84S
HOUMA*         PTSUNNY   79  73  83 SE16      29.83F
PORT FOURCHON* MOCLDY    79  75  89 SE12G17   29.84S

$$

MSZ070-080>082-300000-
SOUTHERN MISSISSIPPI

CITY           SKY/WX    TMP DP  RH WIND       PRES   REMARKS
MCCOMB         MOSUNNY   81  68  64 SE12G21   29.84F
GULFPORT       PTSUNNY   78  72  81 SE13      29.88S
BILOXI         MOSUNNY   79  75  89 SE9       29.88S
PASCAGOULA     MOSUNNY   79  72  79 S7        29.90R
STENNIS ARPT*  PTSUNNY   79  68  69 SE8       29.88S

$$

COASTAL OBSERVATIONS
LAKE AND NEARSHORE STATIONS

STATION/POSITION TIME  TEMP    WIND        PRES    WAVE
                       AIR SEA DIR/SP/G            HT/PER
                 (UTC) (F)     (DEG/KT/KT) (MB)    (FT/S)
PASCAGOULA       2200   79                 1011.7
WAVELAND YACHT   2200   77 75              1011.7
GRAND ISLE       2200   78 77              1010.4
SOUTHWEST PASS   2206          140/  9/ 14   N/A
NEW CANAL        2200   83 76              1010.1
SHELL BEACH      2200   79 78              1011.2

OFFSHORE STATIONS

STATION/POSITION TIME  TEMP    WIND        PRES    WAVE
                       AIR SEA DIR/SP/G            HT/PER
                 (UTC) (F)     (DEG/KT/KT) (MB)    (FT/S)
64 S DAUPHIN ISL 2200   76 75  140/ 10/ 14 1011.5

$$




USA.gov is the U.S. government's official web portal to all federal, state and local government web resources and services.